Wind_Speed
106 112 115 123 126 120 118 109 101 96 90 84 86 85 82 81 76 68 62 56 49 45 42 42 40 36 32 31 29 29 30 31 32 29 28 29 30 32 34 34 34 31 29 27
101 112 114 119 128 125 122 113 107 99 90 92 93 86 81 79 75 72 66 60 53 47 45 44 45 42 38 36 34 34 33 34 33 31 28 28 31 32 35 36 36 36 36 32
92 104 110 111 120 124 117 115 113 102 95 93 93 93 86 82 80 72 69 62 54 49 49 50 49 45 42 40 34 35 35 35 35 34 32 30 29 32 36 36 36 39 37 36
85 96 100 101 113 126 120 118 116 111 103 97 100 95 88 87 81 72 72 66 59 55 53 55 53 48 46 42 36 33 34 34 37 38 37 34 33 34 33 34 38 37 35 37
80 87 86 96 112 116 122 115 114 111 105 97 100 97 94 89 82 73 70 66 62 59 60 62 58 54 48 44 41 38 35 34 36 39 40 39 39 39 37 35 32 35 36 34
76 76 81 90 97 106 117 114 114 114 108 104 103 102 98 91 85 78 74 70 67 68 68 66 63 58 52 48 44 42 39 38 38 38 38 42 43 44 42 39 35 32 30 35
67 64 70 77 85 102 110 114 115 116 113 111 109 103 90 90 86 81 76 74 74 74 72 71 66 57 56 53 48 47 42 41 40 39 38 38 38 39 42 43 42 41 37 34
50 55 64 73 79 92 106 105 116 118 116 114 106 102 95 95 88 82 79 78 79 79 77 70 63 62 61 57 51 47 45 43 42 42 40 38 39 41 44 46 47 46 45 43
44 56 65 69 78 84 104 105 114 119 117 114 109 99 97 90 87 84 80 78 78 81 74 69 67 64 62 56 50 49 47 45 43 45 47 47 45 43 43 47 50 50 50 48
47 57 64 71 75 84 101 105 113 118 117 114 109 103 97 93 90 87 81 77 78 76 71 70 68 66 63 57 54 52 51 48 47 46 46 48 48 47 46 47 48 50 52 51
46 52 60 67 73 88 101 102 110 118 118 115 110 106 100 94 92 89 85 80 77 74 72 71 68 67 65 60 57 56 55 52 50 47 47 49 48 46 46 48 49 50 50 52
45 54 62 64 73 90 98 103 108 115 115 113 111 107 100 93 93 91 88 83 77 72 70 70 69 67 65 64 61 60 59 57 51 50 50 49 47 45 44 47 51 53 53 55
38 47 56 60 77 95 102 101 110 114 112 112 112 109 102 97 90 92 90 82 79 73 70 68 67 70 71 71 68 64 63 60 54 51 50 48 44 40 45 51 55 58 53 53
38 43 50 56 73 93 99 95 108 113 111 109 111 110 105 101 94 95 92 87 74 75 69 68 68 66 69 70 72 69 65 62 58 52 49 46 40 39 41 31 45 36 39 42
38 44 51 57 75 94 99 103 107 111 111 110 108 110 106 100 98 93 94 92 85 79 75 75 73 68 70 70 73 72 69 59 57 54 49 51 49 40 39 50 62 63 59 55
37 46 53 59 73 89 98 102 104 108 109 110 109 107 109 106 101 89 91 93 90 85 80 80 77 71 68 72 74 71 68 63 65 64 58 50 62 59 67 67 68 66 63 55
41 45 52 56 64 84 94 98 100 105 107 109 107 109 109 108 104 100 92 93 93 92 90 88 82 83 83 85 84 81 76 75 73 74 71 67 75 64 67 72 73 65 61 59
44 47 53 59 67 85 95 98 100 104 105 105 106 107 110 109 107 101 98 99 97 96 95 96 95 97 94 92 91 88 84 81 80 82 82 78 80 79 76 74 68 69 66 60
43 49 51 56 67 81 95 96 99 102 103 104 108 108 108 110 108 104 105 100 99 101 101 101 101 99 98 95 94 94 90 87 84 84 84 84 85 88 82 81 83 81 75 69
39 44 53 56 69 83 96 101 101 101 107 111 110 110 111 111 110 106 105 103 105 104 103 102 103 103 101 99 97 96 94 91 89 86 86 84 83 82 84 86 87 84 80 77
49 49 48 49 59 68 87 100 105 107 106 108 113 116 113 113 113 112 110 109 105 107 108 106 104 106 104 102 100 98 95 93 91 87 86 86 85 85 83 81 82 82 81 79
45 51 55 54 54 55 68 92 103 105 109 111 114 114 117 118 117 115 115 109 108 107 107 108 107 110 106 104 103 102 101 99 96 95 93 91 90 89 88 88 87 86 85 84
46 49 49 54 57 57 60 70 94 104 108 111 111 115 117 117 118 119 116 113 112 112 110 108 112 113 108 109 108 105 104 103 102 101 99 98 96 96 96 96 94 92 92 92
44 50 54 55 56 59 61 65 73 86 105 109 110 111 108 114 117 115 117 117 115 114 114 114 113 110 110 111 110 111 112 109 107 106 104 103 101 100 101 101 100 99 99 99
38 44 50 57 60 61 61 62 65 73 86 96 108 113 113 113 114 113 115 115 117 118 118 118 116 114 114 115 112 112 112 109 107 107 105 106 107 110 106 109 105 102 103 105
32 35 41 48 54 60 65 65 65 67 72 81 92 101 112 115 113 113 114 115 117 119 118 120 118 115 115 114 114 114 116 114 113 112 110 111 111 111 109 108 104 101 90 98
27 32 37 40 46 52 59 64 68 68 68 70 75 82 92 104 110 111 111 111 115 118 119 120 119 118 117 117 117 118 118 117 115 117 117 117 117 117 116 115 113 112 110 110
Wind_Direction
224 221 219 217 219 217 216 212 211 211 208 207 217 220 218 216 221 223 222 220 217 217 217 220 222 224 227 230 231 232 235 234 229 227 231 236 235 237 243 242 241 243 245 248
223 223 218 216 216 216 213 210 209 211 209 206 214 220 221 217 218 222 224 221 216 214 216 220 224 224 222 225 230 236 234 236 234 230 232 232 238 240 243 245 245 244 245 245
225 224 221 216 214 216 212 209 208 206 207 206 215 218 217 217 217 215 222 221 217 214 216 220 224 227 226 227 232 235 240 239 235 234 234 235 237 240 244 246 250 250 249 250
224 225 222 215 214 213 211 208 206 204 206 204 213 216 216 217 217 213 216 217 212 212 217 222 223 225 229 230 235 239 241 243 239 234 235 234 237 241 244 246 245 248 253 254
222 223 220 215 214 211 210 207 205 204 204 203 212 215 215 217 217 214 216 215 212 211 216 221 224 225 226 230 235 239 240 243 243 240 240 238 238 243 247 250 252 249 248 253
218 218 216 216 212 208 210 206 203 203 203 204 211 213 216 216 215 212 214 215 212 212 217 219 222 224 226 227 232 237 239 239 240 241 244 241 242 242 244 247 249 250 250 252
216 214 212 213 210 207 207 205 202 201 202 206 209 213 212 218 218 216 213 214 214 216 217 219 221 222 226 226 228 234 236 239 240 240 242 246 252 254 252 249 247 249 250 253
207 206 206 206 206 205 204 202 202 200 201 206 209 210 210 214 217 217 216 216 217 218 219 221 222 223 226 226 229 234 236 237 242 239 241 244 247 249 251 253 252 251 252 253
194 198 199 200 204 198 199 199 200 199 201 206 209 209 210 214 216 218 218 218 219 220 221 219 222 224 227 229 230 234 236 238 241 244 244 244 247 250 250 252 253 252 252 251
190 195 197 196 195 190 195 198 197 198 201 206 208 209 210 213 216 218 218 219 222 223 222 221 222 226 228 229 231 231 233 237 240 242 246 250 252 254 254 253 253 253 253 255
189 192 195 196 188 186 192 196 197 197 200 205 207 208 209 211 215 217 218 220 222 224 224 224 225 228 230 230 230 232 234 237 240 240 241 245 248 253 254 256 258 257 255 252
186 189 194 192 185 185 188 194 197 197 201 204 207 208 208 211 215 219 219 220 222 224 227 229 230 230 233 234 233 232 234 236 235 239 241 242 245 249 254 256 256 254 253 251
192 192 197 191 185 185 189 192 195 197 200 203 206 208 209 211 213 217 220 218 222 225 228 232 235 234 235 234 233 233 235 236 235 237 243 241 244 250 255 258 259 255 252 252
192 196 198 193 188 190 192 193 193 195 200 204 205 207 209 211 212 216 219 220 217 221 222 227 233 235 233 230 233 235 235 234 234 233 238 239 240 253 264 278 236 260 252 254
184 193 199 194 188 189 191 192 195 196 201 204 205 207 209 211 213 215 217 220 221 220 221 224 229 232 235 234 234 233 233 230 233 232 230 228 237 241 240 252 249 255 255 262
188 189 199 197 192 192 193 193 195 197 201 205 206 208 209 213 215 213 217 218 219 218 220 221 223 227 228 230 234 233 228 230 231 233 226 218 235 232 241 243 242 249 257 263
191 196 201 200 192 193 195 197 196 198 202 205 207 208 210 213 216 215 216 219 219 220 218 218 218 221 226 232 234 234 232 232 231 233 229 223 225 233 235 234 240 254 256 255
197 199 203 202 194 191 195 197 200 201 203 206 208 210 210 213 215 216 217 219 221 221 221 224 225 229 229 231 233 234 233 233 234 234 233 227 228 232 235 238 247 249 251 254
214 212 207 206 199 193 196 198 200 201 204 208 210 211 213 214 215 217 218 218 221 223 223 224 227 229 232 232 232 233 235 237 234 236 238 236 234 234 239 242 245 251 255 256
226 224 220 214 207 205 198 197 200 204 207 208 211 213 214 216 216 218 219 220 220 221 224 227 229 232 234 235 237 238 239 240 239 238 238 241 242 242 242 244 247 249 250 252
225 227 233 227 222 216 207 206 204 204 207 209 213 214 215 216 218 218 220 221 223 223 224 226 229 233 236 237 238 240 240 241 243 243 243 244 245 246 245 246 248 249 251 252
223 226 230 230 229 224 217 213 212 212 212 213 213 214 217 219 219 220 222 223 224 226 228 229 230 231 233 237 240 240 242 244 245 246 245 244 245 247 249 250 251 252 253 254
228 226 227 226 231 226 222 218 217 217 218 220 219 219 219 221 224 224 225 225 226 227 229 229 232 236 236 237 238 242 243 244 245 246 248 250 251 251 251 252 253 253 255 257
230 227 227 229 230 228 227 223 219 220 222 222 223 226 226 223 226 228 228 229 229 229 230 231 232 234 237 238 240 242 244 246 247 248 248 250 252 253 253 253 255 257 259 260
231 230 228 228 228 232 232 227 223 221 221 223 225 227 229 229 229 229 230 231 232 232 233 234 234 233 234 239 240 242 245 245 247 250 250 251 251 251 255 255 257 259 260 261
238 235 233 231 230 229 230 232 231 226 224 224 225 225 227 230 233 233 233 233 234 236 236 237 237 237 236 236 239 242 244 245 246 248 250 251 251 252 254 256 257 257 259 263
243 241 235 231 231 232 232 230 230 232 232 228 227 227 228 230 232 233 234 234 234 236 238 240 241 240 239 240 240 239 241 243 244 247 248 250 252 253 255 257 258 258 256 251
Height
10545 10560 10582 10608 10633 10669 10698 10731 10757 10772 10792 10812 10810 10817 10832 10849 10863 10876 10889 10901 10911 10919 10925 10929 10935 10939 10944 10949 10952 10955 10958 10961 10963 10966 10971 10976 10980 10983 10986 10989 10990 10993 10996 10998
10518 10526 10554 10579 10604 10630 10667 10709 10733 10757 10782 10787 10789 10808 10824 10840 10857 10866 10877 10890 10901 10909 10917 10922 10925 10929 10934 10939 10943 10946 10949 10951 10956 10960 10964 10968 10972 10976 10979 10981 10984 10986 10988 10992
10498 10502 10527 10560 10591 10615 10652 10685 10709 10740 10760 10773 10777 10784 10804 10822 10837 10855 10865 10877 10890 10899 10905 10910 10914 10919 10924 10929 10934 10938 10941 10944 10948 10953 10956 10960 10964 10968 10971 10973 10977 10978 10981 10984
10475 10478 10504 10557 10565 10589 10623 10656 10685 10707 10732 10750 10754 10769 10789 10804 10823 10842 10852 10863 10876 10885 10891 10894 10901 10909 10914 10921 10926 10929 10933 10937 10941 10945 10948 10953 10957 10959 10962 10966 10968 10970 10973 10975
10451 10462 10498 10520 10534 10574 10600 10636 10669 10699 10719 10742 10738 10754 10769 10790 10810 10830 10842 10853 10864 10872 10876 10879 10888 10895 10904 10910 10915 10920 10924 10928 10932 10936 10940 10945 10948 10950 10954 10958 10960 10962 10964 10967
10433 10454 10478 10494 10529 10561 10583 10619 10651 10679 10703 10716 10720 10736 10749 10773 10794 10814 10828 10839 10849 10854 10859 10868 10875 10883 10892 10899 10904 10908 10914 10918 10922 10927 10931 10935 10938 10941 10946 10950 10952 10954 10955 10956
10424 10449 10469 10489 10516 10541 10566 10603 10630 10660 10681 10691 10694 10722 10761 10766 10780 10798 10813 10826 10832 10840 10847 10853 10863 10874 10880 10887 10893 10896 10904 10909 10913 10917 10921 10925 10929 10933 10936 10939 10942 10944 10946 10948
10425 10443 10459 10478 10503 10526 10560 10590 10616 10643 10662 10673 10694 10710 10738 10743 10763 10781 10796 10808 10817 10825 10834 10845 10856 10862 10867 10875 10881 10889 10896 10900 10904 10908 10911 10915 10917 10920 10923 10926 10929 10932 10935 10938
10421 10431 10444 10467 10484 10516 10543 10573 10600 10626 10648 10661 10682 10707 10725 10739 10753 10764 10780 10794 10804 10811 10825 10837 10843 10850 10856 10866 10874 10880 10885 10889 10894 10897 10900 10903 10906 10908 10912 10914 10916 10918 10922 10925
10415 10424 10440 10456 10479 10509 10537 10562 10587 10615 10635 10648 10670 10693 10714 10726 10737 10750 10766 10778 10789 10802 10815 10825 10833 10838 10844 10854 10862 10867 10870 10875 10881 10885 10889 10893 10896 10898 10900 10901 10902 10905 10908 10912
10415 10429 10443 10456 10478 10500 10527 10555 10578 10602 10619 10634 10656 10678 10699 10713 10725 10737 10752 10764 10776 10790 10802 10812 10822 10827 10833 10841 10846 10851 10856 10862 10868 10873 10877 10880 10883 10887 10888 10889 10892 10894 10896 10899
10422 10431 10440 10458 10479 10497 10525 10545 10568 10591 10607 10624 10645 10667 10688 10701 10714 10723 10739 10753 10767 10779 10789 10800 10810 10817 10821 10827 10832 10837 10841 10847 10855 10859 10864 10869 10872 10874 10877 10878 10878 10880 10883 10885
10426 10438 10445 10461 10477 10493 10513 10535 10555 10576 10595 10613 10634 10654 10673 10687 10700 10713 10724 10741 10755 10766 10777 10785 10792 10802 10806 10812 10816 10821 10828 10834 10841 10847 10851 10858 10862 10866 10866 10864 10864 10869 10871 10872
10427 10438 10450 10465 10480 10495 10507 10528 10545 10564 10582 10601 10620 10639 10655 10669 10682 10696 10710 10725 10739 10751 10763 10770 10777 10783 10789 10794 10800 10806 10813 10821 10826 10833 10839 10844 10851 10854 10858 10843 10851 10852 10857 10860
10432 10441 10449 10461 10476 10486 10501 10520 10537 10554 10571 10589 10608 10627 10641 10652 10666 10681 10695 10708 10723 10736 10745 10753 10761 10770 10777 10779 10785 10789 10798 10805 10811 10819 10827 10834 10838 10842 10846 10846 10844 10844 10846 10848
10431 10438 10444 10457 10472 10486 10501 10515 10531 10547 10559 10575 10594 10612 10627 10637 10650 10668 10677 10690 10703 10717 10726 10735 10744 10752 10757 10761 10767 10771 10780 10790 10794 10800 10809 10809 10820 10824 10826 10825 10829 10828 10829 10833
10431 10438 10447 10455 10469 10486 10500 10513 10526 10539 10548 10562 10576 10592 10606 10618 10630 10646 10658 10671 10685 10695 10705 10714 10719 10728 10736 10740 10744 10756 10761 10769 10777 10782 10790 10795 10795 10800 10807 10811 10811 10810 10817 10819
10430 10435 10441 10451 10461 10475 10489 10502 10514 10528 10540 10550 10562 10573 10588 10599 10612 10622 10637 10652 10663 10673 10684 10691 10698 10704 10714 10722 10730 10737 10744 10752 10758 10764 10772 10779 10782 10785 10789 10792 10795 10799 10801 10802
10427 10432 10438 10447 10456 10464 10475 10491 10504 10512 10524 10535 10544 10556 10570 10583 10593 10602 10615 10629 10642 10651 10660 10667 10674 10679 10691 10699 10707 10715 10723 10732 10740 10746 10751 10758 10766 10771 10773 10776 10778 10779 10780 10784
10420 10424 10431 10440 10447 10456 10462 10472 10486 10498 10505 10512 10524 10538 10551 10565 10576 10588 10595 10605 10617 10628 10637 10650 10658 10664 10672 10682 10690 10698 10705 10712 10721 10728 10732 10737 10744 10751 10756 10759 10762 10763 10767 10770
10409 10417 10420 10428 10438 10448 10458 10465 10470 10474 10486 10495 10507 10520 10531 10544 10554 10563 10573 10584 10597 10608 10619 10629 10639 10647 10654 10662 10672 10680 10688 10695 10703 10711 10719 10723 10726 10730 10733 10737 10740 10743 10748 10751
10404 10405 10409 10415 10422 10432 10444 10454 10460 10469 10474 10481 10490 10503 10511 10523 10534 10547 10555 10571 10582 10590 10599 10610 10618 10624 10634 10641 10650 10660 10668 10676 10684 10690 10695 10701 10706 10710 10714 10717 10721 10724 10729 10732
10386 10392 10395 10400 10405 10414 10424 10435 10446 10453 10462 10471 10480 10487 10498 10509 10516 10528 10541 10551 10560 10568 10578 10589 10594 10604 10617 10623 10630 10636 10645 10653 10660 10667 10674 10679 10685 10689 10692 10695 10699 10705 10709 10712
10367 10373 10378 10382 10388 10395 10402 10412 10423 10432 10444 10453 10462 10470 10483 10493 10501 10511 10521 10530 10540 10546 10553 10563 10574 10586 10590 10599 10608 10613 10618 10627 10636 10642 10649 10653 10658 10662 10665 10670 10673 10678 10683 10686
10351 10355 10361 10365 10371 10376 10382 10390 10399 10408 10418 10427 10440 10449 10457 10468 10479 10488 10499 10507 10516 10524 10532 10539 10549 10562 10570 10574 10584 10590 10595 10602 10608 10615 10621 10626 10631 10634 10639 10642 10650 10655 10656 10656
10337 10341 10345 10349 10354 10359 10365 10371 10377 10384 10393 10402 10411 10421 10432 10442 10452 10465 10476 10485 10493 10500 10509 10516 10525 10536 10545 10553 10558 10564 10570 10576 10582 10588 10593 10598 10602 10606 10611 10616 10621 10628 10628 10625
10325 10326 10329 10333 10336 10339 10344 10351 10358 10363 10371 10380 10388 10397 10406 10415 10424 10435 10446 10457 10467 10475 10484 10492 10498 10507 10516 10524 10530 10534 10539 10545 10552 10556 10564 10570 10576 10579 10584 10588 10592 10597 10603 10604